Location: Brunembert
(50.7122°N, 1.8935°E)
Time: 15:35:08
(UTC+00:00)

Cosmos 1500 Rocket - Pass Details

Date: 06 August 2021
Orbit: 602 x 632 km, 82.5° (Epoch: 23 September)

Event Time Altitude Azimuth Distance (km) Brightness Sun altitude
Exits shadow 21:56:25 13° 211° (SSW) 1,813 5.7 -17.7°
Maximum altitude 22:00:15 50° 285° (WNW) 806 4.4 -18.0°
Drops below altitude 10° 22:04:37 10° 1° (N) 2,025 7.1 -18.4°
Sets 22:06:56 0° 7° (N) 2,940 7.9 -18.5°
